Weather Roundup
Issued by NWS Chicago, IL

Home | Current Version | Previous Version | Text Only | Print | Product List | Glossary Off
Versions: 1 2 3 4 5 6 7 8 9 10 11 12 13 14 15 16 17 18 19 20 21 22 23 24 25 26 27 28 29 30 31 32 33 34 35 36 37 38 39 40 41 42 43 44 45 46 47 48 49 50

000
NZUS59 KLOT 071000
HRRLOT

CHICAGO AREA WEATHER ROUNDUP
NATIONAL WEATHER SERVICE CHICAGO/ROMEOVILLE IL
500 AM CDT TUE JUL 07 2015

NOTE: "FAIR" INDICATES FEW OR NO CLOUDS BELOW 12,000 FEET WITH NO
SIGNIFICANT WEATHER AND/OR OBSTRUCTIONS TO VISIBILITY.

* THESE STATIONS ARE NOT UNDER NWS QUALITY CONTROL. THEY ALSO MAY NOT
  REPORT WEATHER SUCH AS PRECIPITATION OR FOG.

ILZ005-006-012>014-019>023-071100-
NORTHEAST ILLINOIS

CITY           SKY/WX    TMP DP  RH WIND       PRES   REMARKS
OHARE          LGT RAIN  60  58  92 N23G29    29.88R
MIDWAY         LGT RAIN  73  69  87 VRB6      29.85R FOG
AURORA         CLOUDY    66  62  87 N7        29.87S
WAUKEGAN       LGT RAIN  58  57  97 N14G22    29.89R FOG
DUPAGE AIRPORT RAIN      65  63  93 N10       29.87R FOG
WHEELING       LGT RAIN  60  57  89 N13G22    29.91R
NORTHERLY IS     N/A     60  58  92 N25         N/A
$$

WIZ051-052-058>065-066-070>072-071100-
SOUTHEAST WISCONSIN

CITY           SKY/WX    TMP DP  RH WIND       PRES   REMARKS
MILWAUKEE      LGT RAIN  58  56  93 N12       29.91R FOG
KENOSHA*       LGT RAIN  59  57  93 N13       29.91R FOG
RACINE*        LGT RAIN  59  56  89 N18G29    29.91R FOG
$$

INZ001>003-010>013-019-020-071100-
NORTHWEST INDIANA

CITY           SKY/WX    TMP DP  RH WIND       PRES   REMARKS
GARY*          RAIN     N/A N/A N/A SW7       29.86R
MICHIGAN CITY* NOT AVBL
RENSSELAER*    NOT AVBL
$$

LMZ740>746-071100-
SOUTHERN LAKE MICHIGAN

STATION/POSITION TIME  SKY/WX   TEMP WIND        PRES    VSBY
                                AIR  DIR/SP/G
                 (UTC)          (F)  (DEG/KT/KT) (MB)    (MI)
HARRISON CRIB    0900            72  250/  9/ 12   N/A
BURNHAM HARBOR   0900            72  220/  3/  5   N/A
CALUMET HARBOR   0900            71  200/  5/  7   N/A
BURNS HARBOR     0900            71  220/  7/  9 1011.2F
MICHIGAN CITY    0900            71  200/  6/  7   N/A
$$

ABBREVIATIONS USED IN REMARKS
   TC - TEMPERATURE IN CELSIUS
  WCI - WIND CHILL INDEX
   HX - HEAT INDEX
  VSB - VISIBILITY
$$


USA.gov is the U.S. government's official web portal to all federal, state and local government web resources and services.